Weather History for KTCM - March, 2014

Change the Weather History Date:

Monday, March 24, 2014

  Actual Average (KTIW) Record (KTIW)
Temperature  
Mean Temperature 48 °F -  
Max Temperature 67 °F 50 °F - (-1)
Min Temperature 31 °F 39 °F - (-1)
Degree Days  
Heating Degree Days 16    
Moisture  
Dew Point 35 °F    
Average Humidity 82    
Maximum Humidity 100    
Minimum Humidity 39    
Precipitation  
Precipitation 0.00 in - - ()
Sea Level Pressure  
Sea Level Pressure 30.10 in    
Wind  
Wind Speed 2 mph (SSW)    
Max Wind Speed 8 mph    
Max Gust Speed -    
Visibility 6 miles    
Events      
Averages and records for this station are not official NWS values.
T = Trace of Precipitation, MM = Missing Value Source: NWS Daily Summary

Daily Weather History Graph

Daily Weather History Graph

Search for Another Location

Airport or City:

Trip Planner

Search our weather history database for the weather conditions in past years. The results will help you decide how hot, cold, wet, or windy it might be!

Date:

Astronomy

Mar. 24, 2014 Rise Set
Actual Time 7:04 AM PDT 7:28 PM PDT
Civil Twilight 6:34 AM PDT 7:58 PM PDT
Nautical Twilight 5:58 AM PDT 8:35 PM PDT
Astronomical Twilight 5:20 AM PDT 9:12 PM PDT
Moon 3:01 AM PDT (3/24) 12:38 PM PDT (3/24)
Length of Visible Light 13h 24m
Length of Day
12h 23m
Last Quarter, 42% of the Moon is Illuminated
Mar 24
Last Quarter
Mar 30
New
Apr 7
First Quarter
Apr 15
Full
Apr 22
Last Quarter

Hourly Weather History & Observations

Time (PDT) Temp. Windchill Dew Point Humidity Pressure Visibility Wind Dir Wind Speed Gust Speed Precip Events Conditions
12:58 AM 37.8 °F - 36.3 °F 95% 30.26 in 10.0 mi Calm Calm - N/A   Clear
1:58 AM 37.9 °F - 37.8 °F 99% 30.24 in 10.0 mi Calm Calm - N/A   Clear
2:58 AM 38.5 °F - 38.1 °F 99% 30.23 in 10.0 mi South 2.3 mph - N/A   Mostly Cloudy
3:58 AM 35.2 °F - 34.9 °F 99% 30.21 in 10.0 mi SSE 1.2 mph - N/A   Clear
4:58 AM 35.6 °F 32.8 °F 35.6 °F 100% 30.19 in 2.5 mi South 3.5 mph - N/A   Clear
5:03 AM 33.8 °F - 33.8 °F 100% 30.17 in 3.0 mi South 2.3 mph - N/A   Clear
5:38 AM 32.0 °F 28.7 °F 32.0 °F 100% 30.17 in 2.5 mi South 3.5 mph - N/A   Clear
5:43 AM 32.0 °F - 32.0 °F 100% 30.16 in 3.0 mi SSW 2.3 mph - N/A   Clear
5:58 AM 31.8 °F - 31.5 °F 99% 30.18 in 2.5 mi South 1.2 mph - N/A   Clear
6:03 AM 32.0 °F - 32.0 °F 100% 30.15 in 1.2 mi South 2.3 mph - N/A   Clear
6:08 AM 32.0 °F - 32.0 °F 100% 30.15 in 1.0 mi SSW 2.3 mph - N/A   Clear
6:13 AM 32.0 °F - 32.0 °F 100% 30.15 in 1.0 mi SSW 2.3 mph - N/A   Clear
6:18 AM 32.0 °F 28.7 °F 32.0 °F 100% 30.15 in 0.8 mi SSW 3.5 mph - N/A   Clear
6:23 AM 32.0 °F - 32.0 °F 100% 30.15 in 0.8 mi South 2.3 mph - N/A   Clear
6:28 AM 32.0 °F - 32.0 °F 100% 30.15 in 0.8 mi South 2.3 mph - N/A   Clear
6:38 AM 32.0 °F - 32.0 °F 100% 30.15 in 1.0 mi SSW 2.3 mph - N/A   Clear
6:43 AM 32.0 °F - 32.0 °F 100% 30.15 in 1.5 mi South 2.3 mph - N/A   Clear
6:48 AM 32.0 °F 28.7 °F 32.0 °F 100% 30.14 in 1.2 mi South 3.5 mph - N/A   Clear
6:53 AM 32.0 °F - 32.0 °F 100% 30.14 in 1.0 mi South 2.3 mph - N/A   Clear
6:58 AM 32.0 °F - 32.0 °F 100% 30.16 in 1.2 mi Calm Calm - N/A   Clear
7:03 AM 32.0 °F - 32.0 °F 100% 30.14 in 1.5 mi South 2.3 mph - N/A   Clear
7:08 AM 32.0 °F - 32.0 °F 100% 30.14 in 1.0 mi South 2.3 mph - N/A   Clear
7:13 AM 32.0 °F 28.7 °F 30.2 °F 93% 30.14 in 0.8 mi South 3.5 mph - N/A   Clear
7:18 AM 32.0 °F - 32.0 °F 100% 30.14 in 1.2 mi SSE 2.3 mph - N/A   Clear
7:23 AM 32.0 °F 28.7 °F 32.0 °F 100% 30.14 in 4.0 mi South 3.5 mph - N/A   Clear
7:58 AM 33.4 °F - 33.3 °F 99% 30.14 in 10.0 mi South 1.2 mph - N/A   Clear
8:58 AM 38.5 °F - 38.3 °F 99% 30.13 in 10.0 mi Calm Calm - N/A   Clear
9:58 AM 46.2 °F 45.0 °F 41.5 °F 84% 30.12 in 10.0 mi North 3.5 mph - N/A   Clear
10:58 AM 51.1 °F - 39.9 °F 66% 30.11 in 10.0 mi North 4.6 mph - N/A   Clear
11:58 AM 54.9 °F - 40.8 °F 59% 30.09 in 10.0 mi NNW 4.6 mph - N/A   Clear
12:58 PM 58.3 °F - 39.6 °F 50% 30.06 in 10.0 mi Variable 3.5 mph - N/A   Clear
1:58 PM 61.7 °F - 38.7 °F 43% 30.05 in 10.0 mi Variable 2.3 mph - N/A   Partly Cloudy
2:58 PM 63.5 °F - 41.2 °F 44% 30.01 in 10.0 mi Variable 4.6 mph - N/A   Clear
3:58 PM 65.3 °F - 41.4 °F 42% 29.99 in 10.0 mi North 3.5 mph - N/A   Clear
4:58 PM 66.4 °F - 40.8 °F 39% 29.96 in 10.0 mi NNW 4.6 mph - N/A   Clear
5:58 PM 64.8 °F - 39.0 °F 39% 29.94 in 10.0 mi North 3.5 mph - N/A   Clear
6:58 PM 63.3 °F - 38.5 °F 40% 29.94 in 10.0 mi Calm Calm - N/A   Clear
7:58 PM 56.1 °F - 40.6 °F 56% 29.93 in 10.0 mi WSW 3.5 mph - N/A   Clear
8:58 PM 57.2 °F - 40.6 °F 54% 29.95 in 10.0 mi West 6.9 mph - N/A   Clear
9:58 PM 57.0 °F - 36.9 °F 47% 29.91 in 10.0 mi NNW 4.6 mph - N/A   Mostly Cloudy
10:58 PM 55.2 °F - 32.4 °F 42% 29.93 in 10.0 mi WNW 8.1 mph - N/A   Mostly Cloudy
11:58 PM 51.8 °F - 35.2 °F 53% 29.94 in 10.0 mi South 3.5 mph - N/A   Partly Cloudy